Location: Bonaustraße
(48.4603°N, 11.9280°E)
Time: 20:09:30
(UTC+02:00)

Tiangong - Pass Details

Date: 28 September 2021
Orbit: 382 x 385 km, 41.5° (Epoch: 18 October)

Event Time Altitude Azimuth Distance (km) Brightness Sun altitude
Exits shadow 05:40:11 10° 187° (S) 1,395 3.7 -15.2°
Reaches altitude 10° 05:40:12 10° 187° (S) 1,391 3.7 -15.2°
Maximum altitude 05:41:40 13° 159° (SSE) 1,246 3.7 -14.9°
Drops below altitude 10° 05:43:07 10° 131° (SE) 1,393 4.4 -14.7°
Sets 05:46:04 0° 101° (E) 2,248 6.2 -14.2°
